Location: Huntsville
(41.2590°N, 111.7678°W)
Time: 00:20:14
(UTC+00:00)

N. Korean satellite - Visible Passes

Search period start: 02 December 2021 00:00
Search period end: 12 December 2021 00:00
Orbit: 447 x 495 km, 97.3° (Epoch: 01 December)

Date Brightness Start Highest point End Pass type
(mag) Time Alt. Az. Time Alt. Az. Time Alt. Az.
02 Dec 9.6 00:42:47 10° SW 00:45:29 20° W 00:48:12 10° NW visible
02 Dec 8.7 12:07:04 10° NE 12:09:56 25° E 12:12:47 10° SSE visible
02 Dec 7.9 13:40:43 10° NNW 13:42:56 17° WNW 13:45:09 10° WSW visible
03 Dec 9.9 11:40:16 10° ENE 11:41:15 11° E 11:42:13 10° ESE visible
03 Dec 6.9 13:11:27 10° N 13:14:37 37° WNW 13:17:44 10° SW visible
04 Dec 6.3 12:42:46 10° NNE 12:46:09 84° ESE 12:49:32 10° S visible
05 Dec 9.7 00:50:53 10° SW 00:53:11 16° W 00:55:29 10° NW visible
05 Dec 8.2 12:14:30 10° NNE 12:17:35 31° E 12:20:38 10° SSE visible
05 Dec 8.2 13:48:44 10° NW 13:50:28 14° WNW 13:52:13 10° W visible
06 Dec 9.6 11:47:04 10° ENE 11:48:53 14° E 11:50:42 10° SE visible
06 Dec 7.2 13:19:10 10° N 13:22:08 29° WNW 13:25:07 10° SW visible
07 Dec 6.2 12:50:18 10° N 12:53:41 75° WNW 12:57:04 10° SSW visible
08 Dec 9.9 00:59:05 10° WSW 01:00:47 13° W 01:02:28 10° WNW visible
08 Dec 7.7 12:21:53 10° NNE 12:25:07 40° E 12:28:19 10° S visible
08 Dec 8.4 13:56:55 10° NW 13:57:54 11° WNW 13:58:53 10° W visible
09 Dec 8.8 00:28:58 10° SSW 00:32:03 29° W 00:35:07 10° NW visible
09 Dec 9.3 11:54:05 10° NE 11:56:24 17° E 11:58:43 10° SE visible
09 Dec 7.5 13:26:48 10° NNW 13:29:34 24° WNW 13:32:21 10° SW visible
10 Dec 6.3 13:00:11 40° NNW 13:01:06 58° WNW 13:04:26 10° SSW visible
11 Dec 10.3 01:07:48 10° W 01:08:16 10° W 01:08:45 10° W visible
11 Dec 7.2 12:31:59 46° ENE 12:32:31 52° E 12:35:51 10° S visible
